Regional Weather Roundup
Issued by NWS Green Bay, WI

Home | Current Version | Previous Version | Text Only | Print | Product List | Glossary On
Versions: 1 2 3 4 5 6 7 8 9 10 11 12 13 14 15 16 17 18 19 20 21 22 23 24 25 26 27 28 29 30 31 32 33 34 35 36 37 38 39 40 41 42 43 44 45 46 47 48 49 50
000
ASUS43 KGRB 260411
RWRGRB

NORTH-CENTRAL AND NORTHEAST WISCONSIN REGIONAL WEATHER ROUNDUP
NATIONAL WEATHER SERVICE GREEN BAY WI
1100 PM CDT MON MAY 25 2015

WIZ005-009-010>012-018-019-260500-
NORTH CENTRAL WISCONSIN

CITY           SKY/WX    TMP DP  RH WIND       PRES   REMARKS
IRONWOOD       CLOUDY    54  54 100 CALM      29.74S VSB 3/4
MANITOWISH WTR PTCLDY    58  58 100 S5        29.78F
ARBOR VITAE    PTCLDY    59  57  92 S3        29.79F
EAGLE RIVER    MOCLDY    60  58  94 CALM      29.80S
LAND O LAKES   PTCLDY    58  57  96 CALM      29.80S
RHINELANDER    MOCLDY    62  59  90 SW7       29.82R
PHILLIPS       CLOUDY    60  58  94 S5        29.80R
ANTIGO         CLEAR     56  56 100 CALM      29.84R
TOMAHAWK       CLOUDY    60  58  95 CALM      29.82S
MERRILL        FOG       56  56 100 CALM      29.83S VSB 1/2
$$

WIZ013-073-260500-
NORTHEAST WISCONSIN

CITY           SKY/WX    TMP DP  RH WIND       PRES   REMARKS
IRON MOUNTAIN  CLOUDY    65  59  81 SW3       29.79R
MARINETTE      CLOUDY    66  61  82 SW7       29.81R
OCONTO         PTCLDY    64  62  95 SW3       29.82S
$$

WIZ017-030-035>037-045-260500-
CENTRAL WISCONSIN

CITY           SKY/WX    TMP DP  RH WIND       PRES   REMARKS
MEDFORD        CLOUDY    59  58  98 CALM      29.81S
WAUSAU         MOCLDY    58  57  97 SE5       29.82R
MOSINEE        MOCLDY    59  59 100 S7        29.84S
MARSHFIELD     PTCLDY    61  58  90 S8        29.83R
WISC RAPIDS    PTCLDY    62  59  90 S6        29.85R
STEVENS POINT  PTCLDY    60  59  97 CALM      29.85R
WAUPACA          N/A     63  62  98 CALM      29.85R
SHAWANO        MOCLDY    64  61  90 S3        29.84R
CLINTONVILLE   CLOUDY    63  61  94 S3        29.84R
$$

WIZ038-039-048-051-260500-
FOX VALLEY

CITY           SKY/WX    TMP DP  RH WIND       PRES   REMARKS
NWS GREEN BAY  PTCLDY    64  61  90 S5        29.85R
APPLETON       NOT AVBL
OSHKOSH        PTCLDY    69  60  73 S12       29.86R
FOND DU LAC    PTCLDY    69  59  70 S9        29.88R
$$

WIZ022-050-052-260500-
EAST CENTRAL WISCONSIN

CITY           SKY/WX    TMP DP  RH WIND       PRES   REMARKS
STURGEON BAY   PTCLDY    64  61  88 S8        29.86S
MANITOWOC      CLEAR     71  61  70 SW9       29.87R
SHEBOYGAN      CLEAR     67  61  81 SW9       29.89R
$$

LMZ563-521-522-541>543-260500-
LAKESHORE

STATION/POSITION TIME  TEMP    WIND        PRES    VSBY  WAVE
                       AIR SEA DIR/SP/G                  HT/PER
                 (UTC) (F)     (DEG/KT/KT) (MB)    (MI)  (FT/S)
SHEBOYGAN LKSHOR 0400   69     200/ 14/ 15 1012.2R
KEWAUNEE LKSHORE 0300   67     220/  6/  8 1009.9R
TWO RIVERS CG    0310   53                 1012.4   1 1/4  2
NORTHPORT PIER   0300   60     180/  4/  7 1009.1R
N MID LAKE BUOY  0350   43 37  210/ 10/ 14 1010.0R         3/ 6
SISTER BAY LKSHO 0317   66     210/ 13/ 16   N/A
CHAMBERS ISLAND  0300   62     170/  6/ 11 1009.5R
MENOMINEE LKSHOR 0300   66     220/  5/  8 1010.0R
$$


USA.gov is the U.S. government's official web portal to all federal, state and local government web resources and services.